Location: Carnières
(50.1682°N, 3.3474°E)
Time: 06:19:40
(UTC+00:00)

MOZ.5/SAFIR/RUBIN 5/SL-8 - Pass Details

Date: 14 August 2024
Orbit: 671 x 698 km, 98.3° (Epoch: 08 September)

Event Time Altitude Azimuth Distance (km) Brightness Sun altitude
Exits shadow 02:56:28 12° 269° (W) 2,006 5.7 -13.9°
Maximum altitude 02:56:51 12° 274° (W) 2,001 5.8 -13.9°
Drops below altitude 10° 02:58:47 10° 298° (WNW) 2,163 6.2 -13.6°
Sets 03:02:31 0° 329° (NNW) 3,092 7.3 -13.2°
